EZY58QH EGPH-LTFJ

Flight info

Callsign EZY58QH
Flight time N/A
Altitude 37000
Route TLA Y96 HAVEN DCT OTBUN DCT AVRAL DCT VALBO DCT AMADA DCT NEBUN DCT GODUR DCT HDO DCT PATAK DCT TEGRI DCT SODGO DCT TIMUR L606 GASRU DCT ETOPO DCT ADORU UM19 IBODU
Aircraft A20N/M-SDE2E3FGHIRWXY/LB1

Departure

Time 2026-04-26 09:54
Airport Edinburgh Airport (EGPH)

Arrival

Time N/A
Airport Istanbul Sabiha Gökçen International Airport (LTFJ)
Time Latitude Longitude Altitude Speed Heading
2026-04-26 09:33 55.94920 -3.36429 119 ft 0 kts 148°
2026-04-26 09:46 55.94939 -3.36451 116 ft 4 kts 143°
2026-04-26 09:46 55.94959 -3.36483 114 ft 4 kts 127°
2026-04-26 09:46 55.94969 -3.36521 115 ft 4 kts 79°
2026-04-26 09:46 55.94967 -3.36536 115 ft 2 kts 59°
2026-04-26 09:51 55.94973 -3.36517 114 ft 3 kts 59°
2026-04-26 09:51 55.94991 -3.36466 115 ft 7 kts 59°
2026-04-26 09:51 55.95033 -3.36398 119 ft 10 kts 10°
2026-04-26 09:51 55.95112 -3.36342 115 ft 16 kts 50°
2026-04-26 09:52 55.95180 -3.36145 115 ft 22 kts 59°
2026-04-26 09:52 55.95351 -3.35643 116 ft 23 kts 58°
2026-04-26 09:52 55.95423 -3.35438 118 ft 14 kts 46°
2026-04-26 09:53 55.95500 -3.35448 117 ft 12 kts 332°
2026-04-26 09:53 55.95568 -3.35543 114 ft 13 kts 281°
2026-04-26 09:53 55.95537 -3.35658 116 ft 12 kts 238°
2026-04-26 09:53 55.95385 -3.36108 112 ft 75 kts 239°
2026-04-26 09:54 55.95002 -3.37238 114 ft 139 kts 239°
2026-04-26 09:54 55.94462 -3.38841 498 ft 152 kts 239°
2026-04-26 09:54 55.93908 -3.40461 1134 ft 154 kts 237°
2026-04-26 09:54 55.93307 -3.42184 1576 ft 177 kts 237°
2026-04-26 09:55 55.92606 -3.44194 1891 ft 199 kts 237°
2026-04-26 09:55 55.91853 -3.46366 2333 ft 211 kts 237°
2026-04-26 09:55 55.91064 -3.48646 2780 ft 227 kts 238°
2026-04-26 09:55 55.90215 -3.51170 3278 ft 245 kts 237°
2026-04-26 09:56 55.89132 -3.53526 4091 ft 249 kts 220°
2026-04-26 09:56 55.87586 -3.54949 4926 ft 255 kts 194°
2026-04-26 09:56 55.85801 -3.54944 5688 ft 263 kts 170°
2026-04-26 09:56 55.84027 -3.54060 6563 ft 266 kts 165°
2026-04-26 09:57 55.82255 -3.53014 7360 ft 269 kts 164°
2026-04-26 09:57 55.80470 -3.51962 8158 ft 271 kts 165°
2026-04-26 09:57 55.78672 -3.50939 8962 ft 272 kts 166°
2026-04-26 09:57 55.76862 -3.49929 9778 ft 273 kts 166°
2026-04-26 09:58 55.75065 -3.48938 10512 ft 277 kts 166°
2026-04-26 09:58 55.73163 -3.47900 10845 ft 296 kts 166°
2026-04-26 09:58 55.71128 -3.46794 11124 ft 316 kts 166°
2026-04-26 09:58 55.68968 -3.45621 11385 ft 335 kts 166°
2026-04-26 09:59 55.66680 -3.44377 11667 ft 352 kts 166°
2026-04-26 09:59 55.65080 -3.43507 11961 ft 360 kts 166°
2026-04-26 09:59 55.61860 -3.41756 12754 ft 368 kts 166°
2026-04-26 09:59 55.59395 -3.40418 13366 ft 373 kts 166°
2026-04-26 10:00 55.56894 -3.39062 14019 ft 378 kts 166°
2026-04-26 10:00 55.54396 -3.37520 14622 ft 384 kts 159°
2026-04-26 10:00 55.52089 -3.35048 15207 ft 393 kts 143°
2026-04-26 10:00 55.50252 -3.31490 15778 ft 404 kts 126°
2026-04-26 10:01 55.49042 -3.26957 16322 ft 414 kts 110°
2026-04-26 10:01 55.48273 -3.22027 16932 ft 419 kts 104°
2026-04-26 10:01 55.47697 -3.16963 17541 ft 423 kts 102°
2026-04-26 10:01 55.47211 -3.11829 18137 ft 427 kts 99°